Wind_Speed
2 0 2 5 8 10 12 13 14 15 17 18 17 16 14 13 13 13 15 20 20 20 17 18 18 20 22 24 26 27 25 17 16 15 14 13 10 7 4 2 2 2 6
5 5 3 3 5 8 10 12 12 13 16 19 20 19 17 14 15 14 17 20 20 20 18 18 19 21 23 25 25 26 22 17 17 13 13 13 6 4 4 3 3 3 5
11 11 10 8 7 9 10 12 14 12 15 18 20 19 17 16 17 15 20 20 19 19 17 16 18 20 23 25 23 23 20 16 18 14 12 12 5 3 2 3 2 4 7
19 21 19 15 14 13 12 13 15 16 14 16 18 17 18 19 18 17 20 20 18 18 16 14 16 19 22 24 21 21 18 14 17 14 12 11 5 3 2 4 3 5 6
20 23 26 25 23 23 22 19 17 17 18 17 18 19 20 20 18 18 20 20 18 18 16 14 16 17 20 22 21 18 15 13 15 13 11 10 5 5 5 9 7 7 7
18 19 24 29 34 34 34 31 29 24 21 21 22 23 22 22 21 20 24 21 18 17 16 14 15 16 19 21 20 16 13 12 13 13 10 9 3 5 4 8 7 8 9
22 25 25 29 28 30 33 33 35 35 28 25 24 25 27 27 25 24 27 25 21 18 17 15 14 15 17 19 19 13 10 9 11 12 9 7 3 5 3 6 8 7 8
27 26 29 30 33 35 35 33 32 33 34 36 31 30 31 30 31 31 32 30 24 19 18 16 15 14 16 18 18 13 6 7 8 9 10 8 4 1 4 1 5 6 7
20 22 25 29 31 35 39 40 40 41 36 35 36 36 34 34 33 33 35 35 26 21 18 17 15 14 14 15 16 13 5 4 5 6 8 9 7 3 3 5 3 5 7
23 25 26 29 31 31 31 28 29 37 37 40 37 39 37 38 37 36 35 36 29 22 18 17 15 16 15 13 13 12 6 4 4 4 5 7 7 5 1 5 6 8 7
33 34 36 40 40 41 40 37 32 30 31 35 36 34 38 41 45 31 28 36 27 21 18 19 17 15 17 14 12 11 7 6 4 2 1 4 5 4 4 6 7 7 9
44 46 50 49 47 47 43 42 42 38 35 33 30 33 33 38 34 36 29 22 30 20 18 20 21 17 18 16 12 10 9 8 6 3 3 1 2 1 1 4 5 6 2
52 53 55 55 53 49 45 40 39 37 40 39 32 31 27 22 16 19 16 17 25 32 25 18 21 21 20 19 14 11 9 8 8 6 4 4 3 3 2 3 3 2 1
54 52 51 54 52 45 43 41 36 34 35 40 35 29 28 23 14 11 12 10 21 29 27 24 21 24 22 20 16 13 11 9 9 10 8 5 4 4 4 4 4 3 2
51 51 47 47 45 41 39 38 34 32 33 34 34 34 32 24 16 12 10 15 24 33 28 29 25 26 24 21 18 14 13 9 9 11 10 9 7 6 7 6 5 4 3
50 49 47 44 42 39 33 34 32 30 31 31 31 32 33 30 27 25 22 27 37 38 36 32 27 28 27 22 19 17 15 12 10 12 14 12 11 10 9 9 9 7 5
45 45 44 41 39 37 30 28 29 30 31 32 30 29 30 28 27 32 31 37 47 47 44 35 31 31 28 24 23 19 17 15 12 14 16 17 17 16 14 12 11 11 9
40 39 40 38 36 31 27 26 28 29 31 32 31 31 31 30 32 38 39 42 46 46 41 35 30 28 26 27 24 23 20 17 14 13 18 22 22 20 18 17 15 15 14
40 38 35 34 31 28 29 28 27 28 30 32 33 32 33 32 34 38 42 40 40 43 36 30 30 29 28 28 26 26 22 19 16 16 14 21 26 25 24 24 21 20 20
41 39 35 35 31 29 30 27 28 30 31 30 31 33 35 32 31 42 41 38 40 36 31 35 33 29 28 27 28 26 23 22 20 18 14 13 15 22 26 30 29 30 25
39 38 32 30 31 26 29 28 28 32 33 29 27 29 34 27 29 34 34 38 36 31 30 31 29 28 29 26 26 25 25 23 21 20 17 16 16 16 17 20 20 22 22
33 31 30 31 30 28 28 32 30 35 37 31 25 28 31 26 27 38 36 33 35 36 36 31 27 28 24 31 28 26 24 24 24 22 20 20 19 20 20 20 20 20 23
30 27 25 25 26 23 24 29 31 35 40 31 24 22 22 27 23 23 34 42 35 27 27 27 30 36 36 30 25 25 25 25 24 23 23 22 22 22 23 23 22 22 22
24 25 25 23 23 22 23 27 30 33 36 25 21 29 26 32 25 28 33 32 35 33 27 32 35 37 34 31 26 23 23 23 23 23 22 22 22 23 24 23 22 22 22
17 19 21 21 20 22 22 24 28 28 27 22 24 26 22 31 27 35 35 34 34 38 34 37 35 35 37 31 24 24 25 25 24 21 24 23 21 21 22 22 22 22 24
12 16 14 12 19 19 18 19 22 21 22 22 23 17 17 20 24 27 28 24 28 34 45 30 30 36 44 36 31 27 28 24 24 22 23 22 21 21 22 22 22 23 25
Wind_Direction
191 239 2 351 345 346 344 322 294 280 278 276 273 271 267 264 269 284 304 317 318 331 333 339 341 334 337 346 347 343 342 345 338 337 329 325 324 348 61 64 338 284 215
244 239 247 298 336 331 328 330 316 298 284 280 273 270 264 260 267 283 300 310 318 326 329 336 336 332 339 345 345 343 347 349 345 340 334 333 324 30 73 34 69 107 121
255 257 261 281 307 336 317 305 310 307 306 295 284 271 262 260 269 282 294 310 317 322 324 330 334 333 339 340 341 342 347 352 347 342 339 345 335 44 109 63 72 126 109
286 271 268 267 275 284 294 308 295 293 298 301 293 274 262 263 267 278 293 305 311 315 317 320 328 332 338 342 343 343 350 354 354 345 346 349 358 56 57 58 105 119 96
270 273 260 254 251 253 263 272 281 286 278 279 280 275 273 275 274 279 288 299 301 310 314 317 322 329 335 341 345 346 348 360 1 354 356 351 8 53 100 82 86 114 100
288 280 272 265 261 263 266 256 257 259 267 269 266 268 272 278 274 276 282 292 297 306 310 308 313 326 329 335 340 348 345 359 6 4 3 9 48 99 75 85 80 94 120
299 285 272 268 268 265 269 268 265 258 252 253 262 263 265 267 272 274 280 288 296 303 306 302 302 317 324 328 335 343 345 353 9 8 5 17 66 121 83 86 78 82 118
296 289 277 264 264 266 265 266 265 262 259 255 251 253 256 260 264 268 274 281 287 295 299 296 296 308 318 324 332 333 333 346 5 9 8 9 21 105 125 61 93 92 114
296 295 285 277 274 271 266 265 265 266 262 264 254 255 252 255 257 260 267 274 280 289 295 294 285 294 307 317 328 326 308 320 352 14 8 9 16 32 157 140 133 105 128
286 291 291 289 285 286 286 283 275 267 266 260 259 254 253 255 252 251 251 260 267 276 283 282 276 285 293 303 319 317 289 265 309 3 8 14 13 37 84 148 139 135 140
282 283 288 294 295 288 279 279 284 280 277 268 261 263 262 257 250 254 253 252 247 262 276 278 268 267 281 289 304 310 284 248 259 293 338 21 6 40 108 140 136 130 142
288 288 291 293 296 296 284 275 274 276 279 280 282 273 269 268 282 271 272 299 222 242 258 268 265 260 270 276 284 297 291 246 236 242 282 118 326 299 141 145 128 149 144
285 287 291 292 293 296 285 274 270 269 268 274 276 280 287 300 306 308 292 293 297 231 219 240 259 256 259 267 272 282 284 257 235 209 242 240 227 271 199 180 171 139 168
288 289 290 291 291 288 283 276 265 262 262 261 267 272 278 286 301 301 320 306 289 229 215 220 236 244 251 260 265 271 276 265 247 220 212 224 200 220 236 220 220 211 183
283 284 286 286 286 285 280 276 267 258 256 258 257 257 261 265 259 235 215 220 219 221 225 221 228 238 241 248 255 261 267 263 255 232 215 212 235 225 217 231 228 220 239
276 278 281 283 288 286 280 270 263 257 252 253 252 252 251 252 253 237 215 202 207 213 221 225 236 235 238 240 245 250 258 256 252 246 225 220 224 232 225 216 228 226 210
271 274 275 279 282 286 278 263 253 248 248 248 248 245 245 243 238 231 229 209 204 212 220 224 228 231 234 237 239 241 247 250 241 242 233 230 228 222 226 217 226 241 250
271 269 270 271 275 280 264 250 247 240 242 244 242 241 238 232 238 231 225 211 213 219 223 228 232 232 235 242 242 241 242 245 249 243 232 231 231 232 226 227 223 225 233
271 270 267 264 265 266 254 248 244 242 239 243 240 239 237 234 238 232 222 221 224 224 229 233 234 229 230 237 240 245 241 246 245 247 228 229 229 232 232 235 236 239 242
262 264 267 267 263 262 253 249 242 244 239 244 239 237 237 239 229 227 227 223 217 221 231 231 229 228 231 235 240 243 244 241 243 246 248 250 245 229 236 234 237 243 239
253 252 258 260 249 254 250 243 242 244 249 248 239 236 233 234 230 220 225 222 215 224 223 222 227 233 233 237 241 242 243 240 242 241 240 246 253 256 248 243 243 244 244
244 247 251 252 247 252 257 244 241 240 248 254 242 235 239 232 232 225 224 227 227 226 226 231 227 231 225 232 233 238 237 239 240 242 244 246 248 253 253 253 253 254 255
241 243 249 247 247 257 256 241 236 237 248 256 239 230 225 230 236 239 229 228 221 219 223 223 228 232 225 233 235 229 230 234 236 240 244 249 253 256 255 254 252 254 255
245 243 241 249 245 259 256 239 236 241 251 253 238 226 224 238 231 242 240 237 226 243 244 226 232 224 214 228 228 229 228 232 232 236 245 249 251 252 255 256 258 257 258
239 236 241 250 259 262 255 242 238 239 244 238 222 234 242 228 235 233 249 239 246 250 246 246 239 215 216 218 217 225 227 226 229 237 249 247 245 248 251 253 256 259 262
239 244 236 255 262 251 246 229 219 227 230 217 220 228 245 228 232 238 239 236 233 252 247 233 233 226 230 219 204 217 230 225 228 232 239 244 246 249 252 255 258 263 267
Height
3195 3195 3196 3195 3195 3194 3193 3192 3192 3191 3190 3190 3190 3189 3189 3189 3188 3187 3186 3184 3181 3180 3176 3173 3168 3164 3160 3156 3152 3146 3140 3136 3132 3128 3125 3121 3119 3116 3115 3114 3113 3113 3112
3193 3193 3194 3194 3193 3193 3192 3191 3190 3189 3188 3187 3186 3186 3187 3187 3186 3185 3183 3181 3180 3178 3174 3171 3168 3164 3159 3155 3151 3146 3141 3137 3133 3129 3125 3122 3119 3117 3116 3116 3114 3113 3112
3189 3191 3191 3191 3192 3192 3191 3189 3188 3187 3186 3184 3183 3183 3183 3184 3183 3183 3181 3180 3178 3175 3171 3168 3165 3162 3158 3154 3150 3145 3139 3136 3134 3130 3126 3123 3121 3119 3118 3117 3116 3115 3114
3185 3187 3187 3187 3188 3188 3187 3187 3186 3184 3184 3182 3180 3180 3181 3181 3181 3181 3180 3178 3175 3172 3168 3165 3162 3159 3155 3152 3149 3145 3139 3137 3134 3132 3128 3125 3122 3121 3120 3118 3118 3116 3115
3178 3178 3178 3179 3179 3179 3180 3181 3181 3180 3180 3179 3177 3177 3178 3179 3179 3178 3176 3174 3172 3169 3166 3164 3161 3158 3154 3150 3146 3143 3140 3135 3133 3132 3130 3127 3124 3123 3121 3120 3120 3117 3117
3173 3174 3174 3173 3172 3172 3172 3172 3172 3173 3173 3174 3173 3174 3175 3174 3174 3173 3171 3169 3168 3166 3163 3160 3158 3156 3153 3150 3146 3142 3140 3137 3133 3131 3130 3129 3126 3125 3125 3122 3123 3121 3120
3166 3165 3165 3165 3165 3165 3164 3163 3165 3166 3165 3166 3167 3168 3168 3168 3168 3168 3167 3166 3165 3163 3161 3158 3155 3153 3151 3148 3145 3141 3138 3138 3134 3131 3130 3129 3128 3126 3126 3125 3125 3124 3123
3159 3158 3156 3155 3155 3154 3155 3154 3155 3155 3157 3159 3159 3158 3158 3160 3161 3161 3160 3160 3160 3158 3156 3155 3154 3151 3149 3145 3142 3140 3138 3136 3135 3132 3130 3129 3128 3127 3127 3127 3126 3127 3126
3151 3149 3148 3148 3147 3146 3145 3144 3144 3144 3147 3148 3149 3149 3148 3150 3152 3153 3154 3154 3156 3155 3154 3152 3149 3148 3146 3143 3140 3139 3137 3135 3135 3133 3131 3130 3128 3127 3127 3128 3127 3128 3129
3142 3142 3141 3140 3139 3138 3136 3135 3134 3133 3135 3135 3135 3134 3133 3138 3139 3140 3142 3143 3148 3150 3148 3146 3145 3147 3144 3141 3137 3136 3136 3135 3134 3133 3131 3130 3130 3128 3128 3128 3129 3128 3130
3133 3132 3132 3131 3130 3129 3128 3126 3126 3126 3124 3123 3124 3125 3126 3126 3124 3127 3127 3129 3136 3142 3142 3142 3141 3139 3143 3139 3135 3133 3134 3133 3133 3132 3132 3130 3131 3129 3129 3130 3130 3131 3130
3120 3121 3121 3120 3118 3116 3116 3116 3116 3116 3116 3115 3115 3115 3115 3117 3118 3116 3121 3107 3113 3130 3135 3136 3137 3135 3138 3137 3133 3130 3132 3131 3131 3132 3132 3131 3131 3131 3130 3130 3131 3131 3132
3111 3110 3107 3105 3106 3105 3101 3103 3104 3105 3105 3104 3107 3107 3107 3108 3110 3112 3113 3115 3116 3117 3123 3127 3130 3131 3133 3134 3130 3127 3128 3128 3128 3128 3129 3132 3131 3131 3130 3129 3130 3131 3132
3091 3092 3093 3092 3091 3092 3089 3088 3091 3093 3094 3093 3095 3098 3099 3101 3104 3106 3107 3105 3108 3108 3114 3119 3122 3124 3128 3129 3127 3125 3125 3125 3125 3125 3128 3128 3130 3131 3131 3129 3129 3130 3131
3077 3076 3076 3075 3076 3078 3078 3076 3078 3080 3081 3083 3085 3088 3090 3093 3095 3095 3095 3096 3099 3107 3109 3112 3113 3116 3120 3122 3122 3122 3122 3121 3122 3122 3124 3126 3128 3129 3130 3130 3129 3130 3130
3064 3063 3062 3062 3062 3064 3066 3066 3067 3068 3070 3071 3073 3075 3078 3082 3083 3084 3085 3086 3091 3096 3099 3104 3107 3109 3114 3114 3115 3116 3118 3118 3117 3119 3120 3123 3125 3126 3127 3128 3129 3129 3130
3051 3051 3051 3050 3050 3051 3053 3054 3055 3057 3058 3059 3061 3064 3066 3070 3072 3073 3073 3075 3077 3082 3088 3094 3097 3102 3106 3107 3109 3110 3112 3113 3112 3114 3115 3118 3120 3122 3124 3125 3127 3129 3129
3039 3039 3038 3038 3039 3040 3042 3043 3044 3046 3047 3049 3050 3052 3055 3057 3059 3061 3063 3066 3070 3076 3081 3085 3091 3095 3098 3103 3104 3105 3106 3106 3107 3110 3111 3113 3116 3117 3119 3121 3122 3124 3127
3025 3026 3027 3027 3028 3029 3031 3033 3034 3036 3037 3039 3041 3042 3043 3046 3048 3050 3054 3059 3064 3069 3074 3079 3084 3087 3091 3095 3097 3099 3099 3100 3100 3104 3106 3108 3110 3112 3115 3116 3117 3120 3121
3012 3014 3016 3017 3018 3019 3020 3023 3024 3024 3026 3028 3031 3033 3034 3036 3038 3043 3046 3052 3057 3064 3068 3073 3076 3080 3083 3087 3090 3092 3093 3094 3095 3097 3099 3103 3105 3105 3108 3111 3111 3113 3115
2998 3002 3005 3006 3007 3009 3010 3012 3014 3014 3014 3018 3021 3024 3026 3029 3031 3035 3039 3044 3051 3057 3061 3065 3070 3073 3076 3079 3083 3084 3086 3087 3091 3092 3094 3095 3098 3100 3102 3102 3103 3105 3108
2987 2991 2994 2995 2997 2999 3000 3002 3003 3003 3003 3007 3012 3014 3018 3022 3024 3029 3033 3038 3042 3048 3052 3057 3061 3065 3068 3074 3074 3076 3077 3081 3084 3087 3089 3090 3091 3093 3095 3096 3096 3098 3101
2978 2982 2984 2986 2989 2990 2990 2991 2992 2994 2994 2999 3003 3007 3011 3014 3017 3021 3025 3030 3033 3036 3042 3046 3050 3052 3058 3065 3066 3068 3071 3074 3078 3082 3083 3085 3085 3087 3089 3089 3089 3090 3093
2972 2974 2976 2979 2980 2981 2982 2982 2984 2986 2987 2991 2996 3001 3003 3006 3010 3016 3018 3023 3026 3028 3023 3033 3038 3041 3047 3056 3059 3061 3063 3068 3071 3074 3077 3078 3078 3080 3083 3083 3085 3085 3087
2966 2968 2971 2972 2973 2973 2974 2975 2976 2979 2982 2985 2991 2994 2998 3001 3004 3008 3010 3014 3017 3021 3022 3024 3029 3034 3040 3046 3050 3053 3056 3060 3064 3067 3070 3070 3071 3072 3075 3076 3077 3078 3080
2964 2964 2963 2965 2965 2965 2967 2968 2971 2974 2977 2981 2986 2987 2990 2994 2997 3000 3002 3007 3010 3014 3017 3018 3022 3028 3033 3035 3036 3044 3049 3051 3055 3059 3061 3063 3065 3066 3068 3068 3069 3070 3073